Meteo pe oră la Dabrowa

Astăzi, 11 Aprilie, Duminică

Timp Temperatura Precipitaţii Vânt Presiune Umiditate
00:00 +8°C° 0 mm 1 m/s 741 mmHg 73%
01:00 +8°C° 0 mm 1 m/s 741 mmHg 73%
02:00 +7°C° 0 mm 2 m/s 741 mmHg 75%
03:00 +6°C° 0 mm 2 m/s 740 mmHg 76%
04:00 +6°C° 0 mm 2 m/s 740 mmHg 78%
05:00 +7°C° 0 mm 2 m/s 740 mmHg 75%
06:00 +8°C° 0 mm 2 m/s 740 mmHg 73%
07:00 +9°C° 0 mm 2 m/s 740 mmHg 71%
08:00 +12°C° 0 mm 2 m/s 740 mmHg 64%
09:00 +13°C° 0 mm 3 m/s 740 mmHg 56%
10:00 +16°C° 0 mm 3 m/s 740 mmHg 48%
11:00 +17°C° 0 mm 3 m/s 740 mmHg 46%
12:00 +18°C° 0 mm 3 m/s 740 mmHg 44%
13:00 +19°C° 0 mm 3 m/s 740 mmHg 42%
14:00 +18°C° 0 mm 3 m/s 739 mmHg 47%
15:00 +17°C° 0 mm 4 m/s 739 mmHg 52%
16:00 +15°C° 0 mm 4 m/s 739 mmHg 57%
17:00 +14°C° 0.1 mm 4 m/s 740 mmHg 61%
18:00 +13°C° 0.1 mm 3 m/s 740 mmHg 66%
19:00 +12°C° 0.1 mm 3 m/s 740 mmHg 70%
20:00 +11°C° 0 mm 3 m/s 740 mmHg 72%
21:00 +11°C° 0 mm 3 m/s 740 mmHg 73%
22:00 +11°C° 0 mm 4 m/s 740 mmHg 74%
23:00 +10°C° 0 mm 3 m/s 740 mmHg 76%

Mâine, 12 Aprilie, Luni

Timp Temperatura Precipitaţii Vânt Presiune Umiditate
00:00 +10°C° 0 mm 3 m/s 740 mmHg 77%
01:00 +10°C° 0 mm 3 m/s 740 mmHg 79%
02:00 +9°C° 0 mm 3 m/s 740 mmHg 80%
03:00 +9°C° 0 mm 2 m/s 740 mmHg 82%
04:00 +8°C° 0 mm 2 m/s 740 mmHg 84%
05:00 +9°C° 0 mm 2 m/s 739 mmHg 81%
06:00 +10°C° 0 mm 2 m/s 739 mmHg 78%
07:00 +12°C° 0 mm 2 m/s 739 mmHg 76%
08:00 +12°C° 0 mm 2 m/s 740 mmHg 75%
09:00 +13°C° 0 mm 2 m/s 740 mmHg 74%
10:00 +13°C° 0 mm 2 m/s 740 mmHg 74%
11:00 +13°C° 0 mm 2 m/s 740 mmHg 72%
12:00 +13°C° 0 mm 2 m/s 740 mmHg 71%
13:00 +14°C° 0 mm 2 m/s 740 mmHg 70%
14:00 +13°C° 0 mm 2 m/s 741 mmHg 73%
15:00 +12°C° 0 mm 3 m/s 741 mmHg 76%
16:00 +11°C° 0 mm 3 m/s 741 mmHg 79%
17:00 +10°C° 0 mm 3 m/s 741 mmHg 82%
18:00 +9°C° 0 mm 3 m/s 742 mmHg 85%
19:00 +8°C° 0 mm 3 m/s 742 mmHg 88%
20:00 +7°C° 0.1 mm 3 m/s 742 mmHg 89%
21:00 +7°C° 0.1 mm 3 m/s 743 mmHg 89%
22:00 +5°C° 0.1 mm 3 m/s 743 mmHg 89%
23:00 +4°C° 1.2 mm 3 m/s 743 mmHg 91%

Poimâine, 13 Aprilie, Marţi

Timp Temperatura Precipitaţii Vânt Presiune Umiditate
00:00 +4°C° 1.2 mm 3 m/s 743 mmHg 93%
01:00 +3°C° 1.2 mm 3 m/s 743 mmHg 95%
02:00 +3°C° 0.5 mm 3 m/s 743 mmHg 96%
03:00 +2°C° 0.5 mm 3 m/s 744 mmHg 97%
04:00 +2°C° 0.5 mm 3 m/s 744 mmHg 97%
05:00 +2°C° 0.3 mm 3 m/s 744 mmHg 97%
06:00 +1°C° 0.3 mm 3 m/s 744 mmHg 98%
07:00 +1°C° 0.3 mm 3 m/s 745 mmHg 98%
08:00 +1°C° 0.8 mm 3 m/s 745 mmHg 98%
09:00 +1°C° 0.8 mm 3 m/s 745 mmHg 98%
10:00 +1°C° 0.8 mm 3 m/s 745 mmHg 99%
11:00 +1°C° 2.1 mm 3 m/s 745 mmHg 99%
12:00 0°C° 2.1 mm 3 m/s 745 mmHg 99%
13:00 +1°C° 2.1 mm 2 m/s 745 mmHg 99%
14:00 +1°C° 1.9 mm 2 m/s 745 mmHg 99%
15:00 +1°C° 1.9 mm 2 m/s 744 mmHg 99%
16:00 +1°C° 1.9 mm 2 m/s 744 mmHg 99%
17:00 0°C° 1.6 mm 3 m/s 744 mmHg 99%
18:00 0°C° 1.6 mm 3 m/s 744 mmHg 99%
19:00 0°C° 1.6 mm 3 m/s 744 mmHg 99%
20:00 0°C° 1.4 mm 3 m/s 744 mmHg 99%
21:00 -1°C° 1.4 mm 4 m/s 744 mmHg 99%
22:00 -1°C° 1.4 mm 4 m/s 744 mmHg 99%
23:00 -1°C° 1.6 mm 4 m/s 743 mmHg 99%

14 Aprilie, Miercuri

Timp Temperatura Precipitaţii Vânt Presiune Umiditate
00:00 -1°C° 1.6 mm 4 m/s 743 mmHg 99%
01:00 -2°C° 1.6 mm 4 m/s 743 mmHg 99%
02:00 -2°C° 1.5 mm 4 m/s 743 mmHg 99%
03:00 -2°C° 1.5 mm 4 m/s 743 mmHg 99%
04:00 -2°C° 1.5 mm 4 m/s 743 mmHg 99%
05:00 -2°C° 1.2 mm 4 m/s 743 mmHg 99%
06:00 -2°C° 1.2 mm 4 m/s 743 mmHg 99%
07:00 -2°C° 1.2 mm 4 m/s 743 mmHg 99%
08:00 -2°C° 0.9 mm 4 m/s 743 mmHg 99%
09:00 -1°C° 0.9 mm 4 m/s 743 mmHg 99%
10:00 -1°C° 0.9 mm 4 m/s 743 mmHg 99%
11:00 -1°C° 0.8 mm 4 m/s 743 mmHg 99%
12:00 -1°C° 0.8 mm 4 m/s 743 mmHg 99%
13:00 -1°C° 0.8 mm 4 m/s 743 mmHg 99%
14:00 -1°C° 0.7 mm 4 m/s 742 mmHg 99%
15:00 0°C° 0.7 mm 3 m/s 742 mmHg 99%
16:00 0°C° 0.7 mm 3 m/s 742 mmHg 99%
17:00 0°C° 0.7 mm 3 m/s 742 mmHg 99%
18:00 0°C° 0.7 mm 3 m/s 742 mmHg 99%
19:00 0°C° 0.7 mm 3 m/s 742 mmHg 99%
20:00 0°C° 0.5 mm 3 m/s 742 mmHg 99%
21:00 0°C° 0.5 mm 3 m/s 742 mmHg 99%
22:00 0°C° 0.5 mm 3 m/s 741 mmHg 99%
23:00 0°C° 0.5 mm 3 m/s 741 mmHg 99%

15 Aprilie, Joi

Timp Temperatura Precipitaţii Vânt Presiune Umiditate
00:00 0°C° 0.5 mm 3 m/s 741 mmHg 99%
01:00 0°C° 0.5 mm 3 m/s 741 mmHg 99%
02:00 0°C° 0.3 mm 3 m/s 741 mmHg 99%
03:00 0°C° 0.3 mm 3 m/s 741 mmHg 99%
04:00 0°C° 0.3 mm 3 m/s 741 mmHg 99%
05:00 0°C° 0.3 mm 3 m/s 741 mmHg 99%
06:00 0°C° 0.3 mm 3 m/s 741 mmHg 99%
07:00 0°C° 0.3 mm 3 m/s 741 mmHg 99%
08:00 0°C° 0.3 mm 3 m/s 741 mmHg 99%
09:00 0°C° 0.3 mm 3 m/s 741 mmHg 99%
10:00 0°C° 0.3 mm 3 m/s 741 mmHg 99%
11:00 0°C° 0.3 mm 3 m/s 741 mmHg 99%
12:00 0°C° 0.3 mm 3 m/s 741 mmHg 99%
13:00 0°C° 0.3 mm 3 m/s 742 mmHg 99%
14:00 +1°C° 0.3 mm 2 m/s 742 mmHg 99%
15:00 +1°C° 0.3 mm 2 m/s 742 mmHg 99%
16:00 +1°C° 0.3 mm 2 m/s 742 mmHg 99%
17:00 +1°C° 0.3 mm 2 m/s 742 mmHg 99%
18:00 +1°C° 0.3 mm 2 m/s 742 mmHg 99%
19:00 +1°C° 0.3 mm 2 m/s 742 mmHg 99%
20:00 +1°C° 0.3 mm 2 m/s 742 mmHg 99%
21:00 +1°C° 0.3 mm 2 m/s 742 mmHg 99%
22:00 +1°C° 0.3 mm 2 m/s 742 mmHg 99%
23:00 +1°C° 0.2 mm 2 m/s 742 mmHg 99%

16 Aprilie, Vineri

Timp Temperatura Precipitaţii Vânt Presiune Umiditate
00:00 +1°C° 0.2 mm 2 m/s 742 mmHg 99%
01:00 +1°C° 0.2 mm 2 m/s 742 mmHg 99%
02:00 +1°C° 0.1 mm 2 m/s 742 mmHg 99%
03:00 +1°C° 0.1 mm 2 m/s 742 mmHg 99%
04:00 +1°C° 0.1 mm 2 m/s 743 mmHg 99%
05:00 +1°C° 0.1 mm 2 m/s 743 mmHg 99%
06:00 +1°C° 0.1 mm 2 m/s 743 mmHg 99%
07:00 +1°C° 0.1 mm 2 m/s 743 mmHg 99%
08:00 +2°C° 0.1 mm 2 m/s 744 mmHg 99%
09:00 +2°C° 0.1 mm 2 m/s 744 mmHg 99%
10:00 +2°C° 0.1 mm 2 m/s 744 mmHg 99%
11:00 +2°C° 0 mm 2 m/s 745 mmHg 99%
12:00 +2°C° 0 mm 2 m/s 745 mmHg 99%
13:00 +2°C° 0 mm 2 m/s 745 mmHg 99%
14:00 +2°C° 0 mm 2 m/s 745 mmHg 99%
15:00 +3°C° 0 mm 1 m/s 745 mmHg 99%
16:00 +3°C° 0 mm 1 m/s 746 mmHg 99%
17:00 +3°C° 0 mm 1 m/s 746 mmHg 99%
18:00 +3°C° 0 mm 1 m/s 746 mmHg 99%
19:00 +3°C° 0 mm 1 m/s 746 mmHg 99%
20:00 +3°C° 0 mm 1 m/s 746 mmHg 99%
21:00 +3°C° 0 mm 1 m/s 747 mmHg 99%
22:00 +3°C° 0 mm 1 m/s 747 mmHg 99%
23:00 +3°C° 0 mm 1 m/s 747 mmHg 99%
Arată mai mult

Formular de consimțământ

Meteoprog și furnizorii noștri de servicii pot stoca și accesa date personale, precum cookies, identificatori de dispozitiv sau alte tehnologii similare pe dispozitivul dumneavoastră și procesa astfel de date pentru a personaliza conținutul și reclamele, dar și pentru a oferi caracteristici de social media și pentru a analiza traficul.

  • Stocarea și/sau accesarea informațiilor pe dispozitivul dumneavoastră

    Cookies, identificatori de dispozitiv sau alte informații pot fi stocate sau accesate pe dispozitiv în scopurile indicate mai sus.

  • Reclame și conținut personalizat, evaluarea reclamelor și a conținutului, informații despre audiențe și dezvoltarea produselor

    Reclamele și conținutul pot fi personalizate pe baza unui profil. Pot fi adăugate date suplimentare pentru a personaliza mai bine reclamele și conținutul. Performanța reclamelor și conținutului poate fi măsurată. Pot fi obținute informații despre utilizatorii care au văzut reclamele și conținutul. Aceste date pot fi utilizate pentru a dezvolta sau îmbunătăți experiența utilizatorilor, sistemele și software-ul.

Dând clic pe ‘Sunt de acord’, permiteți utilizarea cookie-urilor menționate, a identificatorilor de dispozitiv, balizelor web sau altor tehnologii similare. Setările pot fi modificate din browser-ul dispozitivului dumneavoastră.

În anumite scopuri, interesele legitime pot prima asupra consimțământului. Puteți citi mai multe informații în acest sens în Politica privind Confidențialitatea Datelor și Cookie.